Weather reports worldwide

Advertisment
Luqa, Malta (16597): temperature & dewpoint: 20.06.2017 00:00:00 - 26.06.2017 00:00:00 (CEST)Luqa, Malta (16597): wind speed: 20.06.2017 00:00:00 - 26.06.2017 00:00:00 (CEST)Luqa, Malta (16597): wind direction: 20.06.2017 00:00:00 - 26.06.2017 00:00:00 (CEST)Luqa, Malta (16597): reduced air pressure: 20.06.2017 00:00:00 - 26.06.2017 00:00:00 (CEST)Luqa, Malta (16597): visibility: 20.06.2017 00:00:00 - 26.06.2017 00:00:00 (CEST)
Date & Time tt [°C] td [°C] ff [km/h] ff [kn] dd ppp [hPa] vv [km]
26.06.2017 00:00:00 25,0 17,0 15 8 W - 10
25.06.2017 23:00:00 25,0 16,6 15 8 W 1015,1 10
25.06.2017 22:00:00 25,0 17,0 15 8 W - 10
25.06.2017 21:00:00 25,0 19,0 13 7 W - 10
25.06.2017 20:00:00 27,6 14,1 13 7 W 1014,4 10
25.06.2017 19:00:00 29,0 11,0 18 10 WNW - 10
25.06.2017 18:00:00 30,0 12,0 18 10 W - 10
25.06.2017 17:00:00 32,0 11,8 18 10 WNW 1015,0 10
25.06.2017 16:00:00 32,0 12,0 22 12 WNW - 10
25.06.2017 15:00:00 32,0 13,0 22 12 NW - 10
25.06.2017 14:00:00 31,8 13,4 22 12 NW 1016,0 10
25.06.2017 13:00:00 32,0 14,0 24 13 NW - 10
25.06.2017 12:00:00 31,0 16,0 16 9 WNW - 10
25.06.2017 11:00:00 29,9 18,5 15 8 WNW 1016,1 10
25.06.2017 10:00:00 30,0 18,0 11 6 WNW - 10
25.06.2017 09:00:00 28,0 19,0 9 5 W - 10
25.06.2017 08:00:00 25,5 21,3 9 5 W 1016,1 10
25.06.2017 07:00:00 24,0 22,0 13 7 W - 10
25.06.2017 06:00:00 23,0 22,0 13 7 WSW - 10
25.06.2017 05:00:00 22,8 21,1 13 7 WSW 1015,7 10
25.06.2017 04:00:00 23,0 22,0 8 4 W - 10
25.06.2017 03:00:00 23,0 19,0 9 5 WSW - 10
25.06.2017 02:00:00 22,2 18,3 8 4 W 1016,6 10
25.06.2017 01:00:00 22,0 20,0 5 3 W - 10
25.06.2017 00:00:00 23,0 21,0 4 2 W - 10
24.06.2017 23:00:00 23,8 21,4 5 3 W 1017,4 10
24.06.2017 22:00:00 24,0 22,0 5 3 W - 10
24.06.2017 21:00:00 24,0 23,0 11 6 WSW - 10
24.06.2017 20:00:00 25,9 21,7 15 8 WSW 1016,3 10
24.06.2017 19:00:00 27,0 21,0 13 7 SW - 10
24.06.2017 18:00:00 28,0 20,0 13 7 WSW - 10
24.06.2017 17:00:00 28,4 20,6 16 9 SW 1016,5 10
24.06.2017 16:00:00 29,0 20,0 15 8 SW - 10
24.06.2017 15:00:00 29,0 19,0 16 9 WSW - 10
24.06.2017 14:00:00 29,9 19,1 16 9 SW 1017,4 10
24.06.2017 13:00:00 30,0 19,0 15 8 SW - 10
24.06.2017 12:00:00 30,0 18,0 11 6 SW - 10
24.06.2017 11:00:00 29,9 16,3 11 6 WSW 1017,8 10
24.06.2017 10:00:00 30,0 16,0 11 6 WSW - 10
24.06.2017 09:00:00 28,0 19,0 9 5 SW - 10
24.06.2017 08:00:00 25,5 21,0 5 3 W 1017,8 10
24.06.2017 07:00:00 24,0 21,0 5 3 WSW - 10
24.06.2017 06:00:00 23,0 21,0 8 4 W - 10
24.06.2017 05:00:00 22,4 20,6 5 3 W 1017,4 10
24.06.2017 04:00:00 23,0 21,0 11 6 W - 10
24.06.2017 03:00:00 23,0 21,0 11 6 W - 10
24.06.2017 02:00:00 23,1 21,2 11 6 WSW 1018,3 10
24.06.2017 01:00:00 23,0 21,0 11 6 WSW - 10
24.06.2017 00:00:00 23,0 20,0 8 4 WSW - 10
23.06.2017 23:00:00 23,7 19,4 8 4 W 1019,2 10
23.06.2017 22:00:00 24,0 19,0 9 5 WNW - 10
23.06.2017 21:00:00 24,0 19,0 9 5 NW - 10
23.06.2017 20:00:00 25,9 18,3 11 6 NW 1018,4 10
23.06.2017 19:00:00 27,0 17,0 15 8 NNW - 10
23.06.2017 18:00:00 29,0 16,0 15 8 NW - 10
23.06.2017 17:00:00 29,8 15,9 15 8 WNW 1018,3 10
23.06.2017 16:00:00 30,0 15,0 15 8 WNW - 10
23.06.2017 15:00:00 30,0 14,0 13 7 NW - 10
23.06.2017 14:00:00 30,5 14,0 18 10 NW 1019,6 10
23.06.2017 13:00:00 31,0 13,0 13 7 N - 10
23.06.2017 12:00:00 30,0 14,0 11 6 NNW - 10
23.06.2017 11:00:00 29,7 14,7 13 7 NW 1019,9 10
23.06.2017 10:00:00 29,0 15,0 11 6 N - 10
23.06.2017 09:00:00 28,0 15,0 13 7 NNW - 10
23.06.2017 08:00:00 25,4 16,0 9 5 NNW 1019,7 10
23.06.2017 07:00:00 24,0 17,0 8 4 W - 10
23.06.2017 06:00:00 22,0 16,0 4 2 - - 10
23.06.2017 05:00:00 21,9 14,1 8 4 N 1018,7 10
23.06.2017 04:00:00 23,0 12,0 11 6 WNW - 10
23.06.2017 03:00:00 22,0 11,0 4 2 W - 10
23.06.2017 02:00:00 22,6 10,9 5 3 WNW 1018,8 10
23.06.2017 01:00:00 22,0 12,0 5 3 NW - 10
23.06.2017 00:00:00 23,0 13,0 5 3 W - 10
22.06.2017 23:00:00 23,3 15,5 5 3 WSW 1019,0 10
22.06.2017 22:00:00 24,0 16,0 4 2 NW - 10
22.06.2017 21:00:00 24,0 16,0 2 1 - - 10
22.06.2017 20:00:00 25,7 14,3 11 6 SE 1017,7 20
22.06.2017 19:00:00 27,0 16,0 13 7 SSE - 10
22.06.2017 18:00:00 29,0 16,0 5 3 - - 10
22.06.2017 17:00:00 28,2 15,1 11 6 WSW 1017,9 10
22.06.2017 16:00:00 28,0 16,0 15 8 WSW - 10
22.06.2017 15:00:00 28,0 16,0 16 9 WSW - 10
22.06.2017 14:00:00 28,2 16,6 16 9 W 1018,6 10
22.06.2017 13:00:00 28,0 16,0 15 8 WSW - 10
22.06.2017 12:00:00 27,0 17,0 15 8 WSW - 10
22.06.2017 11:00:00 26,4 17,5 13 7 SW 1018,8 10
22.06.2017 10:00:00 26,0 17,0 9 5 SW - 10
22.06.2017 09:00:00 25,0 18,0 11 6 WSW - 10
22.06.2017 08:00:00 23,8 18,9 8 4 SW 1017,8 10
22.06.2017 07:00:00 23,0 19,0 5 3 SW - 10
22.06.2017 06:00:00 20,0 18,0 4 2 WSW - 10
22.06.2017 05:00:00 19,9 17,3 5 3 W 1017,1 10
22.06.2017 04:00:00 20,0 17,0 5 3 W - 10
22.06.2017 03:00:00 20,0 17,0 5 3 WNW - 10
22.06.2017 02:00:00 21,2 17,1 5 3 W 1017,8 10
22.06.2017 01:00:00 21,0 17,0 5 3 W - 10
22.06.2017 00:00:00 22,0 17,0 5 3 WNW - 10
21.06.2017 23:00:00 22,1 16,8 5 3 NW 1018,2 10
21.06.2017 22:00:00 22,0 17,0 8 4 WNW - 10
21.06.2017 21:00:00 23,0 17,0 11 6 WSW - 10
21.06.2017 20:00:00 24,2 17,7 15 8 W 1016,9 10
21.06.2017 19:00:00 25,0 16,0 13 7 WSW - 10
21.06.2017 18:00:00 26,0 16,0 16 9 WSW - 10
21.06.2017 17:00:00 26,7 16,0 16 9 WSW 1016,9 10
21.06.2017 16:00:00 27,0 16,0 18 10 WSW - 10
21.06.2017 15:00:00 28,0 16,0 18 10 WSW - 10
21.06.2017 14:00:00 28,0 14,2 15 8 W 1018,0 10
21.06.2017 13:00:00 28,0 17,0 16 9 W - 10
21.06.2017 12:00:00 27,0 19,0 16 9 WSW - 10
21.06.2017 11:00:00 26,4 17,9 16 9 W 1018,8 10
21.06.2017 10:00:00 27,0 18,0 15 8 WNW - 10
21.06.2017 09:00:00 26,0 18,0 13 7 WNW - 10
21.06.2017 08:00:00 24,1 18,4 11 6 WNW 1018,3 10
21.06.2017 07:00:00 23,0 20,0 8 4 W - 10
21.06.2017 06:00:00 21,0 19,0 9 5 W - 10
21.06.2017 05:00:00 21,0 19,0 9 5 W - 10
21.06.2017 04:00:00 21,0 19,0 8 4 W - 10
21.06.2017 03:00:00 21,0 18,0 5 3 W - 10
21.06.2017 02:00:00 20,9 17,9 5 3 WSW 1019,1 10
21.06.2017 01:00:00 22,0 18,0 5 3 W - 10
21.06.2017 00:00:00 22,0 18,0 8 4 W - 10
20.06.2017 23:00:00 22,4 17,7 8 4 WSW 1020,1 10
20.06.2017 22:00:00 23,0 18,0 4 2 - - 10
20.06.2017 21:00:00 23,0 17,0 8 4 W - 10
20.06.2017 20:00:00 24,7 17,5 9 5 SW 1019,6 10
20.06.2017 19:00:00 25,0 17,0 11 6 WSW - 10
20.06.2017 18:00:00 26,0 17,0 9 5 SSW - 10
20.06.2017 17:00:00 27,3 16,1 11 6 SW 1019,6 10
20.06.2017 16:00:00 28,0 10,0 8 4 - - 10
20.06.2017 15:00:00 29,0 11,0 13 7 NE - 10
20.06.2017 14:00:00 27,6 12,5 13 7 ENE 1020,8 10
20.06.2017 13:00:00 27,0 14,0 16 9 NE - 10
20.06.2017 12:00:00 27,0 14,0 16 9 NE - 10
20.06.2017 11:00:00 26,0 16,0 15 8 ENE - 10
20.06.2017 10:00:00 26,0 15,0 16 9 NE - 10
20.06.2017 09:00:00 25,0 16,0 16 9 NE - 10
20.06.2017 08:00:00 23,6 18,2 16 9 NNE 1020,6 10
20.06.2017 07:00:00 22,0 19,0 9 5 NNW - 10
20.06.2017 06:00:00 20,0 19,0 9 5 NNW - 10
20.06.2017 05:00:00 19,8 18,3 8 4 NNW 1019,3 10
20.06.2017 04:00:00 20,0 18,0 9 5 NW - 10
20.06.2017 03:00:00 20,0 18,0 9 5 NNW - 10
20.06.2017 02:00:00 20,3 18,1 8 4 NW 1019,7 10
20.06.2017 01:00:00 20,0 18,0 8 4 NW - 10
20.06.2017 00:00:00 21,0 18,0 8 4 N - 10

tt = temperature
td = dewpoint
ff = wind speed
dd = wind direction
ppp = reduced air pressure
vv = visibility

Next stations